CW4086 Weather Reports


Display with metric or nautical units.
time (UTC)temp
F
wind
direction
speed
MPH
gust
MPH
rain 1hr
in
rain 24hr
in
rain mn
in
humidity
%
barometer
mb
20210307061604 49 109 0.0 1.0 0.00 0.00 0.00 81 1017.8
20210307061108 49 109 0.0 1.0 0.00 0.00 0.00 80 1017.8
20210307060633 48 109 0.0 1.0 0.00 0.00 0.00 80 1017.8
20210307060107 48 109 0.0 0.0 0.00 0.00 0.00 79 1017.8
20210307055908 48 109 0.0 0.0 0.00 0.00 0.00 79 1017.8
20210307055244 48 109 0.0 2.0 0.00 0.00 0.00 78 1017.8
20210307054604 48 109 0.0 2.0 0.00 0.00 0.00 78 1017.8
20210307054104 48 109 1.0 2.0 0.00 0.00 0.00 77 1017.8
20210307053606 48 109 1.0 2.0 0.00 0.00 0.00 77 1017.8
20210307053110 48 109 1.0 2.0 0.00 0.00 0.00 75 1017.8
20210307052841 48 109 1.0 2.0 0.00 0.00 0.00 74 1017.8
20210307052431 49 109 0.0 0.0 0.00 0.00 0.00 73 1017.8
20210307051603 49 109 0.0 0.0 0.00 0.00 0.00 73 1017.7
20210307051131 49 109 0.0 1.0 0.00 0.00 0.00 72 1017.6
20210307050604 50 109 0.0 1.0 0.00 0.00 0.00 71 1017.5
20210307050115 50 109 0.0 1.0 0.00 0.00 0.00 70 1017.4
20210307045743 50 109 0.0 1.0 0.00 0.00 0.00 69 1017.3
20210307045222 51 109 0.0 1.0 0.00 0.00 0.00 68 1017.2
20210307044604 51 109 0.0 2.0 0.00 0.00 0.00 67 1017.2
20210307044109 51 109 0.0 2.0 0.00 0.00 0.00 66 1017.1
20210307043611 51 109 0.0 2.0 0.00 0.00 0.00 64 1017.1
20210307043112 51 109 1.0 2.0 0.00 0.00 0.00 63 1017.1
20210307042902 51 109 0.0 1.0 0.00 0.00 0.00 62 1017.0
20210307042410 51 109 0.0 1.0 0.00 0.00 0.00 61 1016.9
20210307041604 52 109 0.0 2.0 0.00 0.00 0.00 59 1016.9
20210307041108 52 109 1.0 2.0 0.00 0.00 0.00 58 1016.9
20210307040604 52 109 0.0 2.0 0.00 0.00 0.00 58 1016.9
20210307040106 52 109 1.0 2.0 0.00 0.00 0.00 58 1016.8
20210307035913 52 109 1.0 2.0 0.00 0.00 0.00 57 1016.8
20210307035405 53 109 1.0 2.0 0.00 0.00 0.00 57 1016.9
20210307034608 53 110 0.0 1.0 0.00 0.00 0.00 57 1016.9
20210307034111 53 109 0.0 2.0 0.00 0.00 0.00 56 1016.7
20210307033618 53 109 0.0 2.0 0.00 0.00 0.00 56 1016.6
20210307033238 54 109 1.0 2.0 0.00 0.00 0.00 55 1016.6
20210307033054 54 109 0.0 2.0 0.00 0.00 0.00 55 1016.6
20210307032640 54 109 0.0 2.0 0.00 0.00 0.00 54 1016.6
20210307031604 54 109 1.0 2.0 0.00 0.00 0.00 54 1016.5
20210307031104 55 109 0.0 3.0 0.00 0.00 0.00 54 1016.4
20210307030606 55 109 1.0 3.0 0.00 0.00 0.00 53 1016.3
20210307030144 55 109 1.0 3.0 0.00 0.00 0.00 52 1016.1
20210307025940 55 108 2.0 3.0 0.00 0.00 0.00 52 1016.0
20210307025651 56 106 1.0 3.0 0.00 0.00 0.00 52 1016.0
20210307024632 56 106 1.0 5.0 0.00 0.00 0.00 51 1016.0
20210307024105 56 127 2.0 5.0 0.00 0.00 0.00 51 1016.0
20210307023604 57 142 1.0 6.0 0.00 0.00 0.00 50 1016.0
20210307023235 57 148 2.0 6.0 0.00 0.00 0.00 50 1015.9
20210307023058 58 151 1.0 3.0 0.00 0.00 0.00 49 1015.9
20210307022754 58 151 2.0 3.0 0.00 0.00 0.00 49 1015.8
20210307021604 58 155 1.0 3.0 0.00 0.00 0.00 47 1015.7
20210307021119 59 155 2.0 3.0 0.00 0.00 0.00 47 1015.5
20210307020606 59 157 1.0 3.0 0.00 0.00 0.00 47 1015.4
20210307020219 60 157 0.0 1.0 0.00 0.00 0.00 46 1015.3
20210307020034 60 157 0.0 3.0 0.00 0.00 0.00 45 1015.3
20210307015638 61 157 0.0 3.0 0.00 0.00 0.00 45 1015.3
20210307014604 61 156 2.0 5.0 0.00 0.00 0.00 43 1015.3
20210307014104 62 161 1.0 5.0 0.00 0.00 0.00 42 1015.3
20210307013612 64 211 0.0 3.0 0.00 0.00 0.00 41 1015.2
20210307013105 64 211 0.0 3.0 0.00 0.00 0.00 43 1015.2
20210307012752 65 211 0.0 3.0 0.00 0.00 0.00 43 1015.2
20210307012214 65 211 1.0 6.0 0.00 0.00 0.00 43 1015.2
20210307011607 65 208 1.0 7.0 0.00 0.00 0.00 42 1015.2
20210307011104 65 211 3.0 7.0 0.00 0.00 0.00 41 1015.1
20210307010607 66 200 2.0 7.0 0.00 0.00 0.00 40 1015.0
20210307010159 67 161 3.0 7.0 0.00 0.00 0.00 39 1015.1
20210307005901 67 208 2.0 8.0 0.00 0.00 0.00 40 1015.0
20210307005543 67 224 3.0 8.0 0.00 0.00 0.00 39 1015.0
20210307004606 67 212 3.0 8.0 0.00 0.00 0.00 39 1015.0
20210307004103 68 211 3.0 12.0 0.00 0.00 0.00 39 1015.1
20210307003605 68 214 4.0 12.0 0.00 0.00 0.00 39 1015.0
20210307003105 69 239 4.0 9.0 0.00 0.00 0.00 36 1014.9
20210307002837 70 225 4.0 9.0 0.00 0.00 0.00 35 1014.9
20210307002529 71 233 4.0 7.0 0.00 0.00 0.00 33 1014.8
20210307001611 71 195 2.0 7.0 0.00 0.00 0.00 28 1014.7
20210307001137 71 249 3.0 7.0 0.00 0.00 0.00 27 1014.7
20210307000715 71 215 3.0 7.0 0.00 0.00 0.00 26 1014.8
20210307000339 71 213 2.0 7.0 0.00 0.00 0.00 24 1014.9
20210307000034 71 248 3.0 7.0 0.00 0.00 0.00 24 1014.9
20210306235319 72 211 2.0 5.0 0.00 0.00 0.00 23 1015.0
20210306234609 72 225 2.0 5.0 0.00 0.00 0.00 22 1015.1
20210306234104 72 38 1.0 5.0 0.00 0.00 0.00 20 1015.1
20210306233605 72 39 0.0 5.0 0.00 0.00 0.00 22 1015.1
20210306233128 72 250 1.0 6.0 0.00 0.00 0.00 22 1015.2
20210306232917 72 250 2.0 7.0 0.00 0.00 0.00 21 1015.2
20210306232533 72 255 3.0 7.0 0.00 0.00 0.00 22 1015.2
20210306231622 72 239 2.0 6.0 0.00 0.00 0.00 20 1015.2
20210306231104 72 226 2.0 7.0 0.00 0.00 0.00 21 1015.2
20210306230609 72 221 2.0 7.0 0.00 0.00 0.00 23 1015.2
20210306230119 71 251 2.0 7.0 0.00 0.00 0.00 23 1015.2
20210306225836 72 263 3.0 7.0 0.00 0.00 0.00 21 1015.3
20210306225455 72 268 3.0 7.0 0.00 0.00 0.00 20 1015.4
20210306224604 72 231 3.0 6.0 0.00 0.00 0.00 22 1015.4
20210306224104 72 254 2.0 6.0 0.00 0.00 0.00 19 1015.4
20210306223604 72 240 3.0 5.0 0.00 0.00 0.00 19 1015.4
20210306223117 72 254 2.0 6.0 0.00 0.00 0.00 16 1015.5
20210306222931 71 242 3.0 9.0 0.00 0.00 0.00 18 1015.6
20210306222638 71 259 3.0 9.0 0.00 0.00 0.00 18 1015.6
20210306221603 71 240 3.0 6.0 0.00 0.00 0.00 20 1015.5
20210306221104 70 238 2.0 6.0 0.00 0.00 0.00 23 1015.5
20210306220611 70 215 2.0 6.0 0.00 0.00 0.00 22 1015.6
20210306220117 70 208 1.0 6.0 0.00 0.00 0.00 24 1015.7
20210306215817 70 237 3.0 8.0 0.00 0.00 0.00 23 1015.7
20210306215317 69 236 4.0 10.0 0.00 0.00 0.00 25 1015.7
20210306214603 69 264 5.0 10.0 0.00 0.00 0.00 23 1015.8
20210306214106 69 264 5.0 9.0 0.00 0.00 0.00 26 1015.8
20210306213604 69 270 4.0 12.0 0.00 0.00 0.00 26 1015.8
20210306213115 69 232 3.0 12.0 0.00 0.00 0.00 27 1015.8
20210306212908 69 243 3.0 8.0 0.00 0.00 0.00 26 1015.8
20210306212524 69 230 3.0 8.0 0.00 0.00 0.00 27 1015.8
20210306211610 69 251 3.0 9.0 0.00 0.00 0.00 27 1015.8
20210306211104 69 235 4.0 9.0 0.00 0.00 0.00 28 1015.9
20210306210605 69 257 5.0 9.0 0.00 0.00 0.00 32 1015.8
20210306210109 69 256 5.0 9.0 0.00 0.00 0.00 30 1015.7
20210306205755 69 227 4.0 8.0 0.00 0.00 0.00 30 1015.9
20210306205300 69 233 5.0 7.0 0.00 0.00 0.00 28 1015.9
20210306204604 69 261 3.0 7.0 0.00 0.00 0.00 30 1016.1
20210306204104 68 253 3.0 6.0 0.00 0.00 0.00 28 1016.1
20210306203607 68 265 3.0 9.0 0.00 0.00 0.00 28 1016.1
20210306203104 67 237 5.0 9.0 0.00 0.00 0.00 28 1016.2
20210306202902 67 228 5.0 7.0 0.00 0.00 0.00 28 1016.3
20210306202548 67 266 2.0 7.0 0.00 0.00 0.00 30 1016.3
20210306201605 67 282 3.0 7.0 0.00 0.00 0.00 29 1016.4
20210306201106 67 275 3.0 7.0 0.00 0.00 0.00 29 1016.6
20210306200606 67 283 2.0 7.0 0.00 0.00 0.00 31 1016.7
20210306200105 67 269 2.0 7.0 0.00 0.00 0.00 30 1016.7
20210306195818 67 265 3.0 6.0 0.00 0.00 0.00 30 1016.8
20210306195320 66 253 2.0 3.0 0.00 0.00 0.00 31 1016.8
20210306194603 66 245 1.0 7.0 0.00 0.00 0.00 29 1016.8
20210306194106 66 241 3.0 7.0 0.00 0.00 0.00 31 1017.0
20210306193604 66 263 2.0 6.0 0.00 0.00 0.00 31 1017.0
20210306193106 66 274 2.0 5.0 0.00 0.00 0.00 32 1017.1
20210306192757 65 275 2.0 5.0 0.00 0.00 0.00 35 1017.1
20210306192405 64 246 1.0 7.0 0.00 0.00 0.00 35 1017.2
20210306191606 64 269 3.0 7.0 0.00 0.00 0.00 34 1017.3
20210306191106 64 277 4.0 7.0 0.00 0.00 0.00 37 1017.3
20210306190607 64 264 3.0 8.0 0.00 0.00 0.00 39 1017.3
20210306190107 64 268 3.0 8.0 0.00 0.00 0.00 38 1017.2
20210306185848 63 266 2.0 7.0 0.00 0.00 0.00 40 1017.2
20210306185455 63 265 1.0 7.0 0.00 0.00 0.00 40 1017.3
20210306184612 63 246 2.0 8.0 0.00 0.00 0.00 46 1017.3
20210306184104 62 264 2.0 8.0 0.00 0.00 0.00 46 1017.4
20210306183608 62 254 4.0 8.0 0.00 0.00 0.00 45 1017.5
20210306183221 63 280 4.0 8.0 0.00 0.00 0.00 41 1017.6
20210306183024 62 276 3.0 10.0 0.00 0.00 0.00 39 1017.5
20210306182346 62 241 4.0 10.0 0.00 0.00 0.00 38 1017.5
20210306181606 62 232 4.0 10.0 0.00 0.00 0.00 38 1017.5
20210306181105 62 279 5.0 9.0 0.00 0.00 0.00 37 1017.5
20210306180605 63 279 4.0 7.0 0.00 0.00 0.00 36 1017.4
20210306180107 63 238 3.0 6.0 0.00 0.00 0.00 35 1017.3
20210306175904 63 244 2.0 6.0 0.00 0.00 0.00 36 1017.3
20210306175629 63 257 3.0 6.0 0.00 0.00 0.00 34 1017.3
20210306174607 63 250 2.0 5.0 0.00 0.00 0.00 37 1017.3
20210306174107 63 248 1.0 5.0 0.00 0.00 0.00 34 1017.3
20210306173605 63 245 3.0 5.0 0.00 0.00 0.00 36 1017.3
20210306173109 63 148 1.0 3.0 0.00 0.00 0.00 37 1017.3
20210306172934 62 146 1.0 3.0 0.00 0.00 0.00 37 1017.2
20210306172730 62 146 0.0 1.0 0.00 0.00 0.00 39 1017.3
20210306171604 61 144 0.0 0.0 0.00 0.00 0.00 41 1017.3
20210306171103 60 143 0.0 0.0 0.00 0.00 0.00 40 1017.3
20210306170606 60 143 0.0 0.0 0.00 0.00 0.00 41 1017.3
20210306170343 60 143 0.0 0.0 0.00 0.00 0.00 40 1017.4
20210306170133 60 143 0.0 0.0 0.00 0.00 0.00 42 1017.3
20210306165647 60 143 0.0 0.0 0.00 0.00 0.00 40 1017.3
20210306164619 60 143 0.0 0.0 0.00 0.00 0.00 41 1017.3
20210306164107 60 143 0.0 0.0 0.00 0.00 0.00 41 1017.4
20210306163606 59 143 0.0 1.0 0.00 0.00 0.00 39 1017.4
20210306163108 59 143 0.0 1.0 0.00 0.00 0.00 41 1017.4
20210306162840 58 143 0.0 1.0 0.00 0.00 0.00 39 1017.4
20210306162219 57 143 0.0 0.0 0.00 0.00 0.00 41 1017.5
20210306161638 56 143 0.0 1.0 0.00 0.00 0.00 43 1017.5
20210306161104 55 143 0.0 2.0 0.00 0.00 0.00 44 1017.4
20210306160608 55 143 0.0 2.0 0.00 0.00 0.00 45 1017.4
20210306160130 55 143 0.0 1.0 0.00 0.00 0.00 47 1017.5
20210306155828 54 143 0.0 0.0 0.00 0.00 0.00 49 1017.6
20210306155311 53 143 0.0 1.0 0.00 0.00 0.00 48 1017.5
20210306154604 51 143 0.0 1.0 0.00 0.00 0.00 50 1017.4
20210306154110 50 143 0.0 2.0 0.00 0.00 0.00 51 1017.3
20210306153604 49 143 1.0 2.0 0.00 0.00 0.00 52 1017.3
20210306153104 49 143 0.0 1.0 0.00 0.00 0.00 53 1017.3
20210306152807 48 143 1.0 3.0 0.00 0.00 0.00 54 1017.3
20210306152439 48 143 1.0 3.0 0.00 0.00 0.00 54 1017.3
20210306151605 47 143 1.0 3.0 0.00 0.00 0.00 56 1017.5
20210306151107 47 143 1.0 3.0 0.00 0.00 0.00 57 1017.5
20210306150608 46 143 1.0 3.0 0.00 0.00 0.00 58 1017.5
20210306150105 46 143 1.0 3.0 0.00 0.00 0.00 58 1017.4
20210306145756 46 143 2.0 3.0 0.00 0.00 0.00 60 1017.4
20210306145410 46 151 1.0 3.0 0.00 0.00 0.00 61 1017.4
20210306144607 45 153 2.0 3.0 0.00 0.00 0.00 62 1017.4
20210306144106 45 154 2.0 3.0 0.00 0.00 0.00 63 1017.4
20210306143605 45 192 0.0 2.0 0.00 0.00 0.00 64 1017.5
20210306143138 45 192 0.0 2.0 0.00 0.00 0.00 65 1017.4
20210306142819 45 192 0.0 2.0 0.00 0.00 0.00 66 1017.3
20210306142436 45 192 1.0 2.0 0.00 0.00 0.00 67 1017.3
20210306141607 45 192 0.0 2.0 0.00 0.00 0.00 67 1017.3
20210306141105 46 192 2.0 2.0 0.00 0.00 0.00 67 1017.3
20210306140607 46 194 2.0 3.0 0.00 0.00 0.00 68 1017.8
20210306140106 45 194 1.0 3.0 0.00 0.00 0.00 69 1017.7
20210306135833 45 194 1.0 3.0 0.00 0.00 0.00 69 1017.8
20210306135241 45 194 1.0 2.0 0.00 0.00 0.00 69 1017.8
20210306134621 45 194 1.0 2.0 0.00 0.00 0.00 69 1017.8
20210306134107 45 194 1.0 2.0 0.00 0.00 0.00 69 1017.9
20210306133603 45 195 0.0 0.0 0.00 0.00 0.00 68 1017.9
20210306133223 45 195 0.0 0.0 0.00 0.00 0.00 68 1017.9
20210306133107 46 195 0.0 0.0 0.00 0.00 0.00 67 1017.8
20210306132428 46 195 0.0 2.0 0.00 0.00 0.00 66 1017.8
20210306131604 46 195 0.0 3.0 0.00 0.00 0.00 66 1017.7
20210306131109 46 195 1.0 3.0 0.00 0.00 0.00 65 1017.7
20210306130607 46 195 0.0 3.0 0.00 0.00 0.00 63 1017.6
20210306130230 46 194 1.0 2.0 0.00 0.00 0.00 62 1017.4
20210306130036 46 194 0.0 3.0 0.00 0.00 0.00 60 1017.3
20210306125552 47 194 1.0 3.0 0.00 0.00 0.00 58 1017.3
20210306124618 47 194 1.0 3.0 0.00 0.00 0.00 56 1017.3
20210306124106 48 194 0.0 3.0 0.00 0.00 0.00 52 1017.1
20210306123607 49 194 1.0 3.0 0.00 0.00 0.00 50 1016.9
20210306123132 50 135 0.0 2.0 0.00 0.00 0.00 45 1016.8
20210306122926 50 135 1.0 3.0 0.00 0.00 0.00 46 1016.7
20210306122618 50 135 1.0 3.0 0.00 0.00 0.00 45 1016.6
20210306121607 50 135 1.0 2.0 0.00 0.00 0.00 47 1016.3
20210306121105 50 135 1.0 3.0 0.00 0.00 0.00 46 1016.2
20210306120604 50 135 1.0 3.0 0.00 0.00 0.00 46 1016.2
20210306120112 50 135 0.0 2.0 0.00 0.00 0.00 49 1016.2
20210306115941 49 135 0.0 0.0 0.00 0.00 0.00 49 1016.2
20210306115534 49 135 0.0 0.0 0.00 0.00 0.00 49 1016.2
20210306114610 49 135 0.0 0.0 0.00 0.00 0.00 50 1016.1
20210306114104 49 135 0.0 0.0 0.00 0.00 0.00 50 1016.1
20210306113828 49 135 0.0 2.0 0.00 0.00 0.00 52 1016.1
20210306113540 49 135 0.0 2.0 0.00 0.00 0.00 52 1016.1
20210306113140 49 135 1.0 2.0 0.00 0.00 0.00 52 1016.1
20210306112848 49 135 0.0 2.0 0.00 0.00 0.00 52 1016.2
20210306111604 49 135 1.0 1.0 0.00 0.00 0.00 53 1016.3
20210306111117 49 135 0.0 0.0 0.00 0.00 0.00 54 1016.4
20210306110638 49 135 0.0 0.0 0.00 0.00 0.00 54 1016.5
20210306110446 49 135 0.0 0.0 0.00 0.00 0.00 54 1016.5
20210306110107 49 135 0.0 1.0 0.00 0.00 0.00 54 1016.6
20210306105537 49 135 0.0 1.0 0.00 0.00 0.00 54 1016.6
20210306104615 49 135 0.0 1.0 0.00 0.00 0.00 53 1016.7
20210306104106 49 135 0.0 2.0 0.00 0.00 0.00 53 1016.7
20210306103655 49 135 0.0 2.0 0.00 0.00 0.00 53 1016.7
20210306103136 50 135 0.0 1.0 0.00 0.00 0.00 54 1016.7
20210306102832 50 135 0.0 1.0 0.00 0.00 0.00 52 1016.7
20210306102335 50 135 0.0 2.0 0.00 0.00 0.00 52 1016.7
20210306101608 50 135 0.0 2.0 0.00 0.00 0.00 51 1016.7
20210306101114 51 135 1.0 3.0 0.00 0.00 0.00 50 1016.6
20210306100618 51 135 1.0 3.0 0.00 0.00 0.00 49 1016.7
20210306100219 52 135 2.0 3.0 0.00 0.00 0.00 48 1016.7
20210306095959 52 135 2.0 3.0 0.00 0.00 0.00 48 1016.8
20210306095429 52 135 2.0 3.0 0.00 0.00 0.00 49 1016.8
20210306094605 52 135 2.0 3.0 0.00 0.00 0.00 50 1016.8
20210306094107 52 135 2.0 3.0 0.00 0.00 0.00 50 1016.8
20210306093605 51 135 2.0 3.0 0.00 0.00 0.00 51 1016.8
20210306093114 51 135 1.0 3.0 0.00 0.00 0.00 51 1016.8
20210306092849 51 135 1.0 3.0 0.00 0.00 0.00 51 1016.8
20210306092450 51 135 1.0 3.0 0.00 0.00 0.00 50 1016.9
20210306091606 52 135 1.0 3.0 0.00 0.00 0.00 50 1017.0
20210306091106 51 135 2.0 3.0 0.00 0.00 0.00 51 1017.1
20210306090604 51 135 1.0 3.0 0.00 0.00 0.00 51 1017.2
20210306090302 52 135 2.0 3.0 0.00 0.00 0.00 50 1017.2
20210306090109 51 135 2.0 3.0 0.00 0.00 0.00 51 1017.3
20210306085455 51 135 1.0 3.0 0.00 0.00 0.00 51 1017.4
20210306084605 51 135 1.0 3.0 0.00 0.00 0.00 51 1017.4
20210306084106 51 135 2.0 3.0 0.00 0.00 0.00 51 1017.5
20210306083642 51 135 1.0 3.0 0.00 0.00 0.00 52 1017.6
20210306083130 51 135 2.0 3.0 0.00 0.00 0.00 52 1017.4
20210306083024 51 135 1.0 3.0 0.00 0.00 0.00 51 1017.6
20210306082732 52 135 1.0 3.0 0.00 0.00 0.00 51 1017.8
20210306081606 52 135 1.0 3.0 0.00 0.00 0.00 50 1017.8
20210306081106 52 135 1.0 2.0 0.00 0.00 0.00 50 1017.8
20210306080614 52 135 1.0 2.0 0.00 0.00 0.00 50 1017.5
20210306080118 52 135 1.0 3.0 0.00 0.00 0.00 50 1017.6
20210306075933 52 135 1.0 3.0 0.00 0.00 0.00 51 1017.7
20210306075735 52 135 1.0 2.0 0.00 0.00 0.00 51 1017.8
20210306074606 52 135 1.0 2.0 0.00 0.00 0.00 50 1017.9
20210306074112 53 135 1.0 2.0 0.00 0.00 0.00 49 1017.9
20210306073608 53 135 1.0 2.0 0.00 0.00 0.00 48 1017.8
20210306073227 53 135 1.0 2.0 0.00 0.00 0.00 48 1017.8
20210306072952 53 135 1.0 2.0 0.00 0.00 0.00 48 1017.8
20210306072657 53 135 1.0 2.0 0.00 0.00 0.00 48 1017.8
20210306071606 54 135 1.0 2.0 0.00 0.00 0.00 47 1017.8
20210306071105 54 135 1.0 2.0 0.00 0.00 0.00 45 1017.8
20210306070606 55 135 1.0 2.0 0.00 0.00 0.00 44 1017.8
20210306070109 56 135 1.0 2.0 0.00 0.00 0.00 43 1017.8
20210306065852 56 135 1.0 2.0 0.00 0.00 0.00 42 1017.9
20210306065556 56 135 1.0 2.0 0.00 0.00 0.00 42 1017.9
20210306064608 56 135 1.0 2.0 0.00 0.00 0.00 43 1017.9
20210306064126 57 135 1.0 2.0 0.00 0.00 0.00 42 1017.9
20210306063605 57 135 1.0 3.0 0.00 0.00 0.00 40 1017.9
20210306063207 57 135 2.0 3.0 0.00 0.00 0.00 40 1017.9
20210306062951 57 135 2.0 3.0 0.00 0.00 0.00 40 1017.9
20210306062703 56 135 2.0 3.0 0.00 0.00 0.00 41 1017.9